2023/03/11 00:00:00, 0.2, 5.7
2023/03/11 00:10:00, 0.2, 5.6
2023/03/11 00:20:00, 0.2, 5.3
2023/03/11 00:30:00, 0.1, 5.2
2023/03/11 00:40:00, 0.1, 5.2
2023/03/11 00:50:00, 0.1, 5.4
2023/03/11 01:00:00, 0.1, 5.3
2023/03/11 01:10:00, 0.1, 5.0
2023/03/11 01:20:00, 0.1, 5.0
2023/03/11 01:30:00, 0.1, 5.1
2023/03/11 01:40:00, 0.1, 4.4
2023/03/11 01:50:00, 0.2, 4.3
2023/03/11 02:00:00, 0.3, 4.6
2023/03/11 02:10:00, 0.2, 4.1
2023/03/11 02:20:00, 0.2, 4.5
2023/03/11 02:30:00, 0.2, 5.0
2023/03/11 02:40:00, 0.2, 5.6
2023/03/11 02:50:00, 0.1, 5.3
2023/03/11 03:00:00, 0.1, 5.9
2023/03/11 03:10:00, 0.1, 5.7
2023/03/11 03:20:00, 0.2, 5.3
2023/03/11 03:30:00, 0.2, 5.4
2023/03/11 03:40:00, 0.2, 5.3
2023/03/11 03:50:00, 0.1, 4.8
2023/03/11 04:00:00, 0.1, 4.7
2023/03/11 04:10:00, 0.1, 4.7
2023/03/11 04:20:00, 0.2, 5.1
2023/03/11 04:30:00, 0.2, 4.8
2023/03/11 04:40:00, 0.2, 5.7
2023/03/11 04:50:00, 0.1, 5.8
2023/03/11 05:00:00, 0.1, 5.8
2023/03/11 05:10:00, 0.1, 5.7
2023/03/11 05:20:00, 0.1, 5.5
2023/03/11 05:30:00, 0.2, 6.0
2023/03/11 05:40:00, 0.3, 5.6
2023/03/11 05:50:00, 0.1, 5.3
2023/03/11 06:00:00, 0.2, 5.6
2023/03/11 06:10:00, 0.1, 5.5
2023/03/11 06:20:00, 0.1, 5.6
2023/03/11 06:30:00, 0.1, 5.7
2023/03/11 06:40:00, 0.1, 5.3
2023/03/11 06:50:00, 0.2, 5.3
2023/03/11 07:00:00, 0.2, 5.7
2023/03/11 07:10:00, 0.2, 5.8
2023/03/11 07:20:00, 0.2, 6.8
2023/03/11 07:30:00, 0.3, 8.7
2023/03/11 07:40:00, 0.3, 9.8
2023/03/11 07:50:00, 0.1,11.0
2023/03/11 08:00:00, 0.2,11.8
2023/03/11 08:10:00, 0.3,12.5
2023/03/11 08:20:00, 0.2,14.2
2023/03/11 08:30:00, 0.2,14.5
2023/03/11 08:40:00, 0.2,16.0
2023/03/11 08:50:00, 0.1,18.0
2023/03/11 09:00:00, 0.1,17.3
2023/03/11 09:10:00, 0.2,17.9
2023/03/11 09:20:00, 0.1,19.8
2023/03/11 09:30:00, 0.1,19.7
2023/03/11 09:40:00, 0.2,19.1
2023/03/11 09:50:00, 0.3,19.9
2023/03/11 10:00:00, 0.2,20.7
2023/03/11 10:10:00, 0.2,21.1
2023/03/11 10:20:00, 0.1,22.3
2023/03/11 10:30:00, 0.1,23.6
2023/03/11 10:40:00, 0.1,23.7
2023/03/11 10:50:00, 0.0,25.6
2023/03/11 11:00:00, 0.0,27.9
2023/03/11 11:10:00, 0.0,27.2
2023/03/11 11:20:00, 0.0,28.4
2023/03/11 11:30:00, 0.0,27.7
2023/03/11 11:40:00, 0.0,28.9
2023/03/11 11:50:00, 0.0,28.5
2023/03/11 12:00:00, 0.0,28.5
2023/03/11 12:10:00, 0.0,29.4
2023/03/11 12:20:00, 0.0,27.9
2023/03/11 12:30:00, 0.0,26.8
2023/03/11 12:40:00, 0.0,25.8
2023/03/11 12:50:00, 0.0,26.1
2023/03/11 13:00:00, 0.0,25.9
2023/03/11 13:10:00, 0.0,26.8
2023/03/11 13:20:00, 0.0,25.8
2023/03/11 13:30:00, 0.0,25.1
2023/03/11 13:40:00, 0.0,25.5
2023/03/11 13:50:00, 0.0,25.8
2023/03/11 14:00:00, 0.0,25.8
2023/03/11 14:10:00, 0.0,25.4
2023/03/11 14:20:00, 0.0,24.9
2023/03/11 14:30:00, 0.0,25.0
2023/03/11 14:40:00, 0.0,25.2
2023/03/11 14:50:00, 0.0,25.7
2023/03/11 15:00:00, 0.0,25.4
2023/03/11 15:10:00, 0.0,25.5
2023/03/11 15:20:00, 0.0,26.2
2023/03/11 15:30:00, 0.0,25.4
2023/03/11 15:40:00, 0.0,25.1
2023/03/11 15:50:00, 0.0,25.3
2023/03/11 16:00:00, 0.0,24.8
2023/03/11 16:10:00, 0.0,24.4
2023/03/11 16:20:00, 0.0,23.6
2023/03/11 16:30:00, 0.0,23.0
2023/03/11 16:40:00, 0.0,22.5
2023/03/11 16:50:00, 0.0,22.4
2023/03/11 17:00:00, 0.0,21.5
2023/03/11 17:10:00, 0.0,20.7
2023/03/11 17:20:00, 0.0,19.3
2023/03/11 17:30:00, 0.0,18.7
2023/03/11 17:40:00, 0.0,17.6
2023/03/11 17:50:00, 0.0,16.6
2023/03/11 18:00:00, 0.0,15.7
2023/03/11 18:10:00, 0.0,14.7
2023/03/11 18:20:00, 0.0,13.5
2023/03/11 18:30:00, 0.0,13.2
2023/03/11 18:40:00, 0.0,12.9
2023/03/11 18:50:00, 0.0,12.8
2023/03/11 19:00:00, 0.0,12.8
2023/03/11 19:10:00, 0.0,12.0
2023/03/11 19:20:00, 0.1,11.5
2023/03/11 19:30:00, 0.1,11.4
2023/03/11 19:40:00, 0.1,12.3
2023/03/11 19:50:00, 0.1,12.1
2023/03/11 20:00:00, 0.1,11.4
2023/03/11 20:10:00, 0.1,11.2
2023/03/11 20:20:00, 0.1,11.6
2023/03/11 20:30:00, 0.1,11.1
2023/03/11 20:40:00, 0.0,11.0
2023/03/11 20:50:00, 0.0,10.9
2023/03/11 21:00:00, 0.0,10.6
2023/03/11 21:10:00, 0.0,10.4
2023/03/11 21:20:00, 0.0,10.0
2023/03/11 21:30:00, 0.0,10.0
2023/03/11 21:40:00, 0.0, 9.7
2023/03/11 21:50:00, 0.1, 9.9
2023/03/11 22:00:00, 0.1, 9.4
2023/03/11 22:10:00, 0.1, 9.6
2023/03/11 22:20:00, 0.1, 9.9
2023/03/11 22:30:00, 0.1,10.0
2023/03/11 22:40:00, 0.1, 9.6
2023/03/11 22:50:00, 0.1, 9.6
2023/03/11 23:00:00, 0.1,10.3
2023/03/11 23:10:00, 0.1, 9.6
2023/03/11 23:20:00, 0.1, 9.9
2023/03/11 23:30:00, 0.1,10.1
2023/03/11 23:40:00, 0.2,10.2
2023/03/11 23:50:00, 0.2,10.1
